デ・ヴィコ-スイフト-ニート彗星

54P/de Vico-Swift-NEAT (2002)

English version
Home page
Updated on September 13, 2009

---------------------------------------------------------------------

・ プロフィール

符号 54P/2002 T4
再発見日 2002年10月11日
再発見光度 19.3等
再発見者 Near-Earth-Asteroid Tracking Team (Jet Propulsion Laboratory)

・ 軌道要素

Epoch 2002 July 25.0 TT = JDT 2452480.5
T 2002 July 30.92760 TT                                 MPC
q   2.1449387            (2000.0)            P               Q
n   0.13476736     Peri.    2.04942     +0.99983963     -0.01780590
a   3.7677283      Node   358.96501     +0.01455056     +0.87003485
e   0.4307077      Incl.    6.08492     +0.01044019     +0.49266857
P   7.31

・ 星図

・ 光度変化

        m1 = 13.0 + 5 logΔ + 15.0 log r

---------------------------------------------------------------------

軌道要素はM.P.E.C. 2009-Q12に掲載されたものです。
星図は StellaNavigator Ver.2.0 for Windows (アストロアーツ編著 / アスキー出版局刊) で作成したものです。
光度グラフはComet for Windowsで作成したものです。

---------------------------------------------------------------------

Copyright(C) Seiichi Yoshida (comet@aerith.net). All rights reserved.